Regional Weather Roundup
Issued by NWS Cleveland, OH

Home | Current Version | Previous Version | Text Only | Print | Product List | Glossary Off
Versions: 1 2 3 4 5 6 7 8 9 10 11 12 13 14 15 16 17 18 19 20 21 22 23 24 25 26 27 28 29 30 31 32 33 34 35 36 37 38 39 40 41 42 43 44 45 46 47 48 49 50

000
ASUS41 KCLE 271302
RWRCLE
OHIO REGIONAL WEATHER ROUNDUP
NATIONAL WEATHER SERVICE CLEVELAND, OH
900 AM EDT WED JUL 27 2016

NOTE: "FAIR" INDICATES FEW OR NO CLOUDS BELOW 12,000 FEET WITH NO
SIGNIFICANT WEATHER AND/OR OBSTRUCTIONS TO VISIBILITY.

OHZ001>008-015>018-024>027-034-035-043-044-271400-
   NORTHWEST OHIO

CITY           SKY/WX    TMP DP  RH WIND       PRES   REMARKS
DEFIANCE       SUNNY     75  65  70 CALM      30.04S
FINDLAY        MOSUNNY   77  60  55 CALM      30.04R
TOLEDO EXPRESS SUNNY     75  65  70 SW5       30.03S
TOLEDO EXEC    SUNNY     78  63  59 W5        30.04S
LIMA           MOSUNNY   77  63  61 CALM      30.05R
$$

OHZ009>014-019>023-028>033-038-089-271400-
   NORTHEAST OHIO

CITY           SKY/WX    TMP DP  RH WIND       PRES   REMARKS
CLE-HOPKINS    SUNNY     78  58  49 SW5       30.05S
CLE-LAKEFRONT  SUNNY     78  60  53 CALM      30.02S
CUY CO. ARPT   SUNNY    N/A N/A N/A E7        30.05R
LORAIN-ELYRIA  SUNNY     73  62  68 SW5       30.05R
ASHTABULA      SUNNY     72  65  78 S5        30.05S
AKRON-CANTON   MOSUNNY   77  55  46 CALM      30.06R
WOOSTER        PTSUNNY   75  61  61 CALM      30.06R
MANSFIELD      MOSUNNY   78  59  51 CALM      30.06S
YOUNGSTOWN     MOSUNNY   75  60  59 SW3       30.06R
$$

OHZ042-051>053-060>062-070>072-077>081-271400-
  SOUTHWEST OHIO

CITY           SKY/WX    TMP DP  RH WIND       PRES   REMARKS
CINC-COVINGTON CLOUDY    76  73  91 NW3       30.03S
CINC-LUNKEN    CLOUDY    76  75  97 CALM      30.03R
HAMILTON       CLOUDY    76  69  79 NW3       30.05R
DAYTON         MOSUNNY   76  69  79 CALM      30.06R
WRIGHT-PAT AFB SUNNY     76  73  91 NW2       30.04R
DAYTON GENERAL MOSUNNY   78  69  73 CALM      30.04R
WILMINGTON     CLOUDY    79  73  82 W5        30.04R
$$

OHZ036-037-039>041-045>050-054>059-063>069-073>076-082>088-271400-
  CENTRAL AND SOUTHEAST OHIO

CITY           SKY/WX    TMP DP  RH WIND       PRES   REMARKS
COLUMBUS       PTSUNNY   76  69  79 VRB3      30.03R
OSU AIRPORT    PTSUNNY   76  64  66 CALM      30.04R
BOLTON FIELD   MOSUNNY   73  73 100 CALM      30.04S FOG
RICKENBACK AFB NOT AVBL
NEWARK         PTSUNNY   75  62  64 CALM      30.04R
MARION         MOSUNNY   77  62  59 N3        30.06R
LANCASTER      CLOUDY    76  74  93 W3        30.04S
ZANESVILLE     CLOUDY    76  70  82 CALM      30.04R
NEW PHILLY     MOSUNNY   79  61  53 CALM      30.04S
$$




USA.gov is the U.S. government's official web portal to all federal, state and local government web resources and services.